User: anonymous   Login
Location: *
(43.0167°S, 179.9000°E)
Time: 19:12:25
(UTC+00:00)
Language:

CZ-4B R/B - Orbit

View from above orbital plane
View from above orbital plane
View from above satellite
View from above satellite

Ground track
Ground track

The orbit data is extracted from the following two-line orbital elements,

1 37181U 10051C   24282.55968611  .00026841  00000-0  15245-2 0  9996
2 37181  97.8542 299.3223 0088331  68.2115 292.8483 15.09562951765314
Epoch (UTC): 08 October 2024 13:25:56
Eccentricity: 0.0088331
inclination: 97.8542°
perigee height: 476 km
apogee height: 598 km
right ascension of ascending node: 299.3223°
argument of perigee: 68.2115°
revolutions per day: 15.09562951
mean anomaly at epoch: 292.8483°
orbit number at epoch: 76531

The dashed part of the orbit path shows where the satellite is in the earth's shadow,  

DLR